Regional Weather Roundup
Issued by NWS Little Rock, AR

Home | Current Version | Previous Version | Graphics & Text | Print | Product List | Glossary On
Versions: 1 2 3 4 5 6 7 8 9 10 11 12 13 14 15 16 17 18 19 20 21 22 23 24 25 26 27 28 29 30 31 32 33 34 35 36 37 38 39 40 41 42 43 44 45 46 47 48 49 50
000
ASUS44 KLZK 271005
RWRLZK

WEATHER ROUNDUP FOR ARKANSAS
NATIONAL WEATHER SERVICE LITTLE ROCK AR
400 AM CST THU NOV 27 2014

NOTE: "FAIR" INDICATES FEW OR NO CLOUDS BELOW 12,000 FEET WITH NO
SIGNIFICANT WEATHER AND/OR OBSTRUCTIONS TO VISIBILITY.

ARZ001-003-010-029-271100-
NORTHWEST ARKANSAS

CITY           SKY/WX    TMP DP  RH WIND       PRES   REMARKS
FAYETTEVILLE   CLEAR     28  23  81 N5        30.44R WCI  23
FORT SMITH     CLEAR     33  24  69 N8        30.45R WCI  26
HARRISON       CLOUDY    31  23  72 NW8G17    30.40R WCI  23
BENTONVILLE    CLEAR     28  21  74 N9        30.44R WCI  20
ROGERS         MOCLDY    27  23  85 VRB5      30.44R WCI  22
SILOAM SPGS    CLEAR     25  18  74 N5        30.45S WCI  19
HIGHFILL       CLEAR     27  23  85 N9        30.43R WCI  18
$$

ARZ004-005-016-271100-
NORTH CENTRAL ARKANSAS

CITY           SKY/WX    TMP DP  RH WIND       PRES   REMARKS
BATESVILLE     CLOUDY    37  25  60 NW6G20    30.38R
FLIPPIN        CLOUDY    34  21  60 NW12G18   30.40F WCI  25
MTN HOME       CLOUDY    33  24  69 N7        30.38S WCI  27
$$

ARZ040-041-271100-
WEST CENTRAL ARKANSAS

CITY           SKY/WX    TMP DP  RH WIND       PRES   REMARKS
MENA           CLEAR     37  27  65 NW7       30.42R
MOUNT IDA      CLEAR     35  25  66 NW6       30.37R WCI  30
$$

ARZ009-017-025-026-028-271100-
NORTHEAST ARKANSAS

CITY           SKY/WX    TMP DP  RH WIND       PRES   REMARKS
CORNING        CLOUDY    37  28  70 NW13G20   30.39R
JONESBORO      CLOUDY    38  28  67 NW15G26   30.37R
NEWPORT        PTCLDY    37  28  70 N22G29    30.38R
WALNUT RIDGE   CLOUDY    37  27  65 NW14      30.39R
BLYTHEVILLE    CLOUDY    43  31  62 NW24G30   30.34R
$$

ARZ022-023-033-042-044-271100-
CENTRAL ARKANSAS

CITY           SKY/WX    TMP DP  RH WIND       PRES   REMARKS
LITTLE ROCK    CLEAR     39  26  59 N16       30.38R
N LITTLE ROCK    N/A     36  29  74 NW12G20   30.38R
JACKSONVILLE   CLEAR     36  26  66 NW5       30.40R
SEARCY         CLEAR     36  26  67 N6        30.41R
HOT SPRINGS    CLEAR     38  26  62 W3        30.40R
RUSSELLVILLE   CLEAR     36  25  64 NW7       30.41R
CLINTON        FAIR      36  25  64 NW9       30.41R
$$

ARZ036-271100-
EAST ARKANSAS

CITY           SKY/WX    TMP DP  RH WIND       PRES   REMARKS
WEST MEMPHIS   CLOUDY    39  31  72 NW8G20    30.35R
$$

ARZ050-053-066-070-073-271100-
SOUTHWEST ARKANSAS

CITY           SKY/WX    TMP DP  RH WIND       PRES   REMARKS
ARKADELPHIA    FAIR      37  29  73 W3        30.43R
CAMDEN         CLEAR     39  27  60 MISG      30.42R
TEXARKANA      CLEAR     41  27  57 NW9       30.44R
EL DORADO      CLEAR     40  29  64 W6        30.42R
DE QUEEN       CLEAR     36  28  73 NW5       30.44R
$$

ARZ056-057-069-271100-
SOUTHEAST ARKANSAS

CITY           SKY/WX    TMP DP  RH WIND       PRES   REMARKS
PINE BLUFF     FLURRIES  39  27  62 NW9       30.38R
STUTTGART      CLEAR     37  27  65 NW15      30.37S
MONTICELLO     CLEAR     37  29  72 W5        30.38R

$$





USA.gov is the U.S. government's official web portal to all federal, state and local government web resources and services.